Find Starlink 4187

NORAD ID: 52850 Int'l Des: 2022-062 Owner: SPXS Country: US Constellation: starlink operational
LEOCIRCULAR

实时位置

正在加载3D地球...

关于 Starlink 4187

正在加载描述...

即将过境

Passes for default location (London). Set your location on the main map for personalized predictions.

高度历史

Loading altitude history...

两行轨道根数

1 52850U 22062W 26124.32654189 .00001188 00000-0 92727-4 0 9994
2 52850 53.2173 144.7149 0001038 74.7629 285.3478 15.08833457214187
Epoch: May 4, 2026 • Age: 14 hours

当前状态

高度 541.3 km
速度 7.59 km/s
星下点 -2.97°S, 141.14°E
发射日期 Jun 17, 2022
运行时间 3.8 years
类型 internet

技术详情

分类 Payload
质量 297.00 kg
干质量 275.00 kg
总质量 297.00 kg
长度 0.20 m
直径 2.80 m
跨度 9.00 m
形状 Box + pan
制造商 SPXS
平台类型 Starlink
阶段状态 In Orbit
所有者/国家 SPXS/US

Most Searched